Location: Unspecified
(0.0000°N, 0.0000°E)
Time: 21:02:12
(UTC+00:00)

STARLINK-1056 - Pass Details

Date: 15 January 2020
Orbit: 548 x 551 km, 53.0° (Epoch: 29 September)

Event Time Altitude Azimuth Distance (km) Brightness Sun altitude
Rises 19:07:45 0° 326° (NW) 2,721 7.3 -13.6°
Reaches altitude 10° 19:09:58 10° 326° (NW) 1,831 6.4 -14.1°
Maximum altitude 19:14:08 90° 3° (N) 561 3.6 -15.1°
Drops below altitude 10° 19:18:20 10° 146° (SE) 1,842 6.2 -16.1°
Sets 19:20:35 0° 146° (SE) 2,739 7.1 -16.6°
